Flag for Germany Weather past 2 weeks in Schweinfurt, Bavaria, Germany

Now
72 °F

Partly sunny.


Feels Like: 74 °F
Forecast: 61 / 85 °F
Wind: 3 mph from West

Location: Wuerzburg

Current Time: Aug 4, 2015 at 8:55:57 PM

Latest Report: Aug 4, 2015 at 8:00 PM


Visibility: 31 mi

Pressure: 30.01 "Hg

Humidity: 70%

Dew point: 62 °F

Location of SchweinfurtLocation

Historic Weather in Schweinfurt — Graph

°F

Schweinfurt temperature yesterday

Maximum temperature yesterday: 90 °F (at 3:00 PM)
Minimum temperature yesterday: 57 °F (at 6:00 AM)
Average temperature yesterday: 76 °F

Past Weeks' High & Low Weather Summary

 TemperatureHumidityPressure
High94 °F (Jul 22, 2:00 PM)93% (Jul 25, 3:00 AM)30.14 "Hg (Jul 25, 3:00 AM)
Low49 °F (Jul 30, 5:00 AM)21% (Aug 2, 5:00 PM)29.68 "Hg (Jul 25, 5:00 AM)
Average69 °F56%29.93 "Hg
* Reported Jul 20 8:00 PM — Aug 4 8:00 PM, Schweinfurt, Weather by CustomWeather, © 2015

Note: Actual official high and low records may vary slightly from our data, if they occured in-between our weather recording intervals... More about our weather records

Advertising

Schweinfurt weather history for previous 24 hours

 ConditionsComfort  
Time TempWeatherWind HumidityBarometerVisibility
8:00 PM
Tue, Aug 4
72 °FPartly sunny.3 mph70%30.01 "Hg31 mi
7:00 PM71 °FPartly sunny.3 mph71%30.01 "Hg34 mi
6:00 PM71 °FOvercast.5 mph71%30.02 "Hg34 mi
5:00 PM68 °FOvercast.6 mph80%30.01 "Hg34 mi
4:00 PM76 °FLight rain. Overcast.13 mph53%29.97 "Hg9 mi
3:00 PM86 °FOvercast.12 mph36%29.90 "Hg34 mi
2:00 PM90 °FPartly sunny.10 mph32%29.87 "Hg28 mi
1:00 PM88 °FScattered clouds.9 mph31%29.88 "Hg28 mi
12:00 PM90 °FScattered clouds.5 mph31%29.87 "Hg28 mi
11:00 AM86 °FPassing clouds.5 mph37%29.89 "Hg28 mi
10:00 AM80 °FPassing clouds.2 mph47%29.91 "Hg22 mi
9:00 AM75 °FPassing clouds.1 mph56%29.91 "Hg18 mi
8:00 AM69 °FPassing clouds.2 mph66%29.94 "Hg16 mi
7:00 AM65 °FPassing clouds.No wind71%29.96 "Hg18 mi
5:00 AM66 °FClear.No wind68%29.96 "Hg19 mi
4:00 AM67 °FClear.1 mph64%29.97 "Hg22 mi
3:00 AM68 °FClear.No wind58%29.98 "Hg25 mi
2:00 AM70 °FPassing clouds.1 mph55%29.98 "Hg25 mi
1:00 AM71 °FPassing clouds.1 mph51%29.98 "Hg28 mi
11:00 PM
Mon, Aug 3
77 °FClear.3 mph40%29.98 "Hg31 mi
10:00 PM79 °FPassing clouds.3 mph36%29.97 "Hg31 mi
9:00 PM83 °FPassing clouds.3 mph31%29.96 "Hg37 mi
8:00 PM87 °FSunny.2 mph27%29.95 "Hg34 mi
Weather by CustomWeather, © 2015

See weather overviewHow to use our weather pages